Weather History for Clovis, NM

Change the Weather History Date:

Thursday, October 6, 2011

  Actual Average Record
Temperature  
Mean Temperature 68 °F -  
Max Temperature 84 °F 75 °F 90 °F (1911)
Min Temperature 53 °F 46 °F 33 °F (1952)
Cooling Degree Days 4    
Growing Degree Days 18 (Base 50)    
Moisture  
Dew Point 50 °F    
Average Humidity 59    
Maximum Humidity 88    
Minimum Humidity 27    
Precipitation  
Precipitation 0.00 in - - ()
Sea Level Pressure  
Sea Level Pressure 29.86 in    
Wind  
Wind Speed 14 mph (South)    
Max Wind Speed 34 mph    
Max Gust Speed 44 mph    
Visibility 10 miles    
Events      
Averages and records for this station are not official NWS values.
T = Trace of Precipitation, MM = Missing Value Source: NWS Daily Summary

Daily Weather History Graph

Daily Weather History Graph

Search for Another Location

Airport:

Trip Planner

Search our weather history database for the weather conditions in past years. The results will help you decide how hot, cold, wet, or windy it might be!

Date:

Astronomy

Oct. 06, 2011 Rise Set
Actual Time 6:50 AM MDT 6:29 PM MDT
Civil Twilight 6:25 AM MDT 6:54 PM MDT
Nautical Twilight 5:56 AM MDT 7:24 PM MDT
Astronomical Twilight 5:27 AM MDT 7:53 PM MDT
Moon 3:33 PM MDT (10/6) 1:53 AM MDT (10/6)
Length of Visible Light 12h 29m
Length of Day
11h 39m
Waxing Gibbous, 76% of the Moon is Illuminated
Oct 6
Waxing Gibbous
Oct 11
Full
Oct 19
Last Quarter
Oct 26
New
Nov 2
First Quarter

Hourly Weather History & Observations

Time (MDT) Temp. Dew Point Humidity Pressure Visibility Wind Dir Wind Speed Gust Speed Precip Events Conditions
12:15 AM 57.2 °F 51.8 °F 82% 29.94 in 10.0 mi South 6.9 mph - N/A   Clear
12:35 AM 55.4 °F 50.0 °F 82% 29.94 in 10.0 mi South 6.9 mph - N/A   Clear
12:55 AM 55.4 °F 50.0 °F 82% 29.94 in 10.0 mi South 4.6 mph - N/A   Clear
1:15 AM 55.4 °F 50.0 °F 82% 29.93 in 9.0 mi South 5.8 mph - N/A   Clear
1:35 AM 55.4 °F 50.0 °F 82% 29.93 in 10.0 mi SSE 3.5 mph - N/A   Clear
1:55 AM 55.4 °F 48.2 °F 77% - 10.0 mi SE 5.8 mph - N/A   Clear
2:15 AM 53.6 °F 48.2 °F 82% 29.92 in 10.0 mi SSE 6.9 mph - N/A   Clear
2:35 AM 53.6 °F 48.2 °F 82% 29.91 in 10.0 mi South 6.9 mph - N/A   Clear
2:55 AM 55.4 °F 51.8 °F 88% 29.90 in 10.0 mi South 8.1 mph - N/A   Clear
3:15 AM 55.4 °F 51.8 °F 88% 29.90 in 10.0 mi South 6.9 mph - N/A   Clear
3:35 AM 55.4 °F 51.8 °F 88% 29.90 in 10.0 mi South 6.9 mph - N/A   Clear
3:55 AM 55.4 °F 51.8 °F 88% 29.90 in 10.0 mi South 5.8 mph - N/A   Clear
4:15 AM 55.4 °F 51.8 °F 88% 29.89 in 10.0 mi South 8.1 mph - N/A   Clear
4:35 AM 55.4 °F 51.8 °F 88% 29.89 in 10.0 mi South 8.1 mph - N/A   Clear
4:55 AM 55.4 °F 51.8 °F 88% 29.89 in 10.0 mi South 8.1 mph - N/A   Clear
5:15 AM 55.4 °F 51.8 °F 88% 29.89 in 10.0 mi South 9.2 mph - N/A   Clear
5:35 AM 55.4 °F 51.8 °F 88% 29.89 in 10.0 mi South 11.5 mph - N/A   Clear
5:55 AM 55.4 °F 51.8 °F 88% 29.89 in 10.0 mi South 9.2 mph - N/A   Clear
6:15 AM 55.4 °F 51.8 °F 88% 29.89 in 10.0 mi South 13.8 mph - N/A   Clear
6:35 AM 55.4 °F 51.8 °F 88% 29.90 in 10.0 mi South 10.4 mph - N/A   Clear
6:55 AM 55.4 °F 51.8 °F 88% 29.90 in 10.0 mi South 11.5 mph - N/A   Clear
7:15 AM 55.4 °F 51.8 °F 88% 29.90 in 10.0 mi South 12.7 mph - N/A   Clear
7:55 AM 57.2 °F 51.8 °F 82% 29.90 in 10.0 mi South 12.7 mph - N/A   Clear
8:15 AM 59.0 °F 53.6 °F 82% 29.90 in 10.0 mi South 17.3 mph 20.7 mph N/A   Clear
8:35 AM 60.8 °F 53.6 °F 77% 29.90 in 10.0 mi South 19.6 mph 24.2 mph N/A   Clear
8:55 AM 62.6 °F 55.4 °F 77% 29.90 in 10.0 mi South 18.4 mph 24.2 mph N/A   Clear
9:35 AM 64.4 °F 55.4 °F 73% 29.91 in 10.0 mi South 18.4 mph - N/A   Clear
9:55 AM 68.0 °F 55.4 °F 64% 29.90 in 10.0 mi South 18.4 mph - N/A   Clear
10:15 AM 69.8 °F 55.4 °F 60% 29.90 in 10.0 mi South 17.3 mph - N/A   Clear
10:35 AM 71.6 °F 53.6 °F 53% 29.90 in 10.0 mi South 19.6 mph 25.3 mph N/A   Clear
10:55 AM 73.4 °F 53.6 °F 50% 29.89 in 10.0 mi South 24.2 mph 31.1 mph N/A   Clear
11:15 AM 75.2 °F 53.6 °F 47% 29.88 in 10.0 mi South 23.0 mph 32.2 mph N/A   Clear
11:35 AM 77.0 °F 51.8 °F 41% 29.88 in 10.0 mi SSW 23.0 mph 32.2 mph N/A   Clear
11:55 AM 78.8 °F 50.0 °F 36% 29.87 in 10.0 mi South 23.0 mph 34.5 mph N/A   Clear
12:15 PM 80.6 °F 48.2 °F 32% 29.86 in 10.0 mi SSW 27.6 mph 33.4 mph N/A   Clear
12:35 PM 80.6 °F 48.2 °F 32% 29.85 in 10.0 mi SSW 24.2 mph 32.2 mph N/A   Clear
12:55 PM 82.4 °F 48.2 °F 30% 29.84 in 10.0 mi South 28.8 mph 35.7 mph N/A   Clear
1:15 PM 82.4 °F 48.2 °F 30% 29.83 in 10.0 mi SSW 27.6 mph 36.8 mph N/A   Clear
1:35 PM 82.4 °F 48.2 °F 30% 29.82 in 10.0 mi South 31.1 mph 41.4 mph N/A   Clear
1:55 PM 82.4 °F 48.2 °F 30% 29.81 in 10.0 mi South 25.3 mph 39.1 mph N/A   Clear
2:15 PM 84.2 °F 46.4 °F 27% 29.80 in 10.0 mi SSW 29.9 mph 39.1 mph N/A   Scattered Clouds
2:35 PM 84.2 °F 46.4 °F 27% 29.79 in 10.0 mi South 29.9 mph 43.7 mph N/A   Scattered Clouds
2:55 PM 84.2 °F 48.2 °F 29% 29.78 in 9.0 mi South 31.1 mph 42.6 mph N/A   Partly Cloudy
3:15 PM 84.2 °F 48.2 °F 29% 29.77 in 10.0 mi South 28.8 mph 42.6 mph N/A   Clear
3:35 PM 84.2 °F 48.2 °F 29% 29.77 in 10.0 mi South 29.9 mph 42.6 mph N/A   Clear
3:55 PM 82.4 °F 48.2 °F 30% 29.77 in 10.0 mi South 29.9 mph 42.6 mph N/A   Clear
4:15 PM 82.4 °F 48.2 °F 30% 29.76 in 10.0 mi South 34.5 mph 40.3 mph N/A   Partly Cloudy
4:35 PM 82.4 °F 46.4 °F 28% 29.76 in 10.0 mi South 32.2 mph 40.3 mph N/A   Partly Cloudy
4:55 PM 82.4 °F 46.4 °F 28% 29.76 in 10.0 mi South 28.8 mph 40.3 mph N/A   Partly Cloudy
5:15 PM 82.4 °F 46.4 °F 28% 29.76 in 10.0 mi South 27.6 mph 36.8 mph N/A   Clear
5:35 PM 80.6 °F 44.6 °F 28% 29.77 in 10.0 mi South 27.6 mph 38.0 mph N/A   Clear
5:55 PM 80.6 °F 46.4 °F 30% 29.77 in 10.0 mi South 26.5 mph 32.2 mph N/A   Clear
6:15 PM 78.8 °F 46.4 °F 32% 29.77 in 10.0 mi South 24.2 mph 27.6 mph N/A   Clear
6:35 PM 77.0 °F 46.4 °F 34% 29.78 in 10.0 mi South 21.9 mph 27.6 mph N/A   Clear
6:55 PM 75.2 °F 48.2 °F 38% 29.78 in 10.0 mi South 20.7 mph - N/A   Clear
7:15 PM 73.4 °F 51.8 °F 47% 29.79 in 10.0 mi South 19.6 mph - N/A   Clear
7:35 PM 73.4 °F 51.8 °F 47% 29.80 in 10.0 mi South 21.9 mph 29.9 mph N/A   Clear
8:35 PM 71.6 °F 53.6 °F 53% 29.83 in 10.0 mi South 20.7 mph 29.9 mph N/A   Clear
8:55 PM 71.6 °F 53.6 °F 53% 29.84 in 10.0 mi South 17.3 mph - N/A   Clear
9:15 PM 71.6 °F 53.6 °F 53% 29.83 in 10.0 mi South 19.6 mph 25.3 mph N/A   Clear
9:35 PM 69.8 °F 53.6 °F 56% 29.83 in 10.0 mi South 18.4 mph - N/A   Clear
9:55 PM 69.8 °F 55.4 °F 60% 29.84 in 10.0 mi South 24.2 mph 27.6 mph N/A   Clear
10:15 PM 69.8 °F 55.4 °F 60% 29.84 in 10.0 mi South 21.9 mph 28.8 mph N/A   Clear
10:35 PM 69.8 °F 55.4 °F 60% 29.85 in 10.0 mi South 23.0 mph 29.9 mph N/A   Clear
10:55 PM 69.8 °F 55.4 °F 60% 29.86 in 10.0 mi South 23.0 mph 28.8 mph N/A   Clear
11:15 PM 68.0 °F 55.4 °F 64% 29.86 in 10.0 mi South 23.0 mph 29.9 mph N/A   Clear
11:35 PM 68.0 °F 55.4 °F 64% 29.86 in 10.0 mi South 20.7 mph 27.6 mph N/A   Clear
11:55 PM 66.2 °F 55.4 °F 68% 29.86 in 10.0 mi South 20.7 mph 28.8 mph N/A   Clear